sat.trackr.live / text

‹ back to catalog

SITRO-AIS 22

NORAD 61740 · 2024-199F

PAYLOAD ACTIVE UNKNOWN

§ Identity

Operator
Country
CIS
Launch date
2024-11-04
Launch site
VOSTO
Launch vehicle
Mass (kg)
RCS (m²)

External: N2YO · Heavens-Above · Gunter

§ Orbital elements

Epoch: 2026-05-25T03:48:38.167776Z

Period
96.27 min
Inclination
97.3262°
Eccentricity
0.0013827
Mean motion
14.95775095 rev/d
Perigee alt
570.3 km
Apogee alt
589.6 km
Semi-major
6,958.1 km
B*
2.3952e-4
RAAN
344.6697°
Arg perigee
135.3880°
Mean anomaly
224.8457°
Rev number
12,847

§ Raw data

SITRO-AIS 221 61740U 24199F   26145.15877509  .00002623  00000+0  23952-3 0  99992 61740  97.3262 344.6697 0013827 135.3880 224.8457 14.95775095128473

JSON: /api/v1/satellites/61740 · /tle

For live sub-satellite position, see the globe view (requires WebGL).

§ Visibility from observer

Set your observer location to see the next 7 days of passes ≥ 10°. The values pass through the URL so the page stays shareable.

No JS? Fill the form by hand. The geolocation button needs JavaScript.

§ Radio — SatNOGS DB

ModeDescriptionDownlinkUplink
GMSK USP Mode U - GMSK2k4 - USP 401.195 MHz

1 transmitter · refreshed weekly from db.satnogs.org